This demonstration page uses our WeatherBlox Daily Observations layout. Learn more.

Left ArrowRight Arrow

41.55636, -103.73856

Hourly Observations for October 27, 2021

Temp ( °F °C ) Dew Point ( °F °C ) Humidity (%) Winds ( mph kmh ) Pressure ( in mb ) Visibility ( mi km ) Precip ( " mm )
12:58 am 00:58 Cloudy 38 3.2 35 1.8 91 91 NNW 12 19 29.84 1010 10 16 N/A
1:58 am 01:58 Mostly Cloudy 38 3.3 35 1.9 91 91 NW 12 19 29.82 1010 10 16 N/A
2:58 am 02:58 Cloudy 39 4 35 1.7 85 85 NW 16 26 29.85 1011 10 16 N/A
3:58 am 03:58 Cloudy 39 3.9 35 1.7 86 86 NW 16 26 29.87 1012 10 16 N/A
4:58 am 04:58 Partly Cloudy 37 2.9 32 undefined 81 81 NW 13 20 29.90 1013 10 16 N/A
5:58 am 05:58 Clear 35 1.6 31 -0.7 85 85 WNW 13 20 29.93 1014 10 16 N/A
6:58 am 06:58 Clear 34 1 30 -1.2 85 85 WNW 13 20 29.96 1014 10 16 N/A
7:58 am 07:58 Mostly Sunny 34 1 29 -1.6 83 83 WNW 12 19 29.98 1015 10 16 N/A
8:58 am 08:58 Sunny 37 3 31 -0.5 78 78 NW 16 26 29.98 1015 10 16 N/A
9:58 am 09:58 Sunny 44 6.5 31 -0.6 61 61 NW 21 33 29.96 1015 10 16 N/A
10:58 am 10:58 Sunny 47 8.6 28 -2.4 46 46 NW 23 37 29.94 1014 10 16 N/A
11:58 am 11:58 Sunny 51 10.5 25 -3.7 37 37 NW 31 50 29.92 1013 10 16 N/A
12:58 pm 12:58 Sunny 53 11.7 22 -5.6 30 30 NNW 30 48 29.89 1012 10 16 N/A
1:58 pm 13:58 Partly Cloudy 52 11 21 -6.2 30 30 NNW 22 35 29.88 1012 10 16 N/A
2:58 pm 14:58 Mostly Cloudy 52 11.3 24 -4.7 33 33 NNW 24 39 29.87 1011 10 16 N/A
3:58 pm 15:58 Sunny 54 12.4 21 -5.9 28 28 NNW 24 39 29.87 1011 10 16 N/A
4:58 pm 16:58 Mostly Sunny 54 12.1 22 -5.5 29 29 NNW 26 43 29.91 1013 10 16 N/A
5:58 pm 17:58 Mostly Clear 49 9.6 22 -5.3 35 35 NNW 16 26 29.95 1014 10 16 N/A
6:58 pm 18:58 Mostly Cloudy 49 9.7 24 -4.4 37 37 N 24 39 29.98 1015 10 16 N/A
7:58 pm 19:58 Mostly Cloudy 47 8.5 26 -3.4 43 43 N 17 28 30.00 1016 10 16 N/A
8:58 pm 20:58 Mostly Cloudy 47 8.4 27 -2.7 46 46 W 13 20 30.04 1017 10 16 N/A
9:58 pm 21:58 Mostly Cloudy 44 6.9 30 -1 58 58 N 16 26 30.07 1018 10 16 N/A
10:58 pm 22:58 Mostly Cloudy 44 6.6 30 -1.3 57 57 NW 17 28 30.06 1018 10 16 N/A
11:58 pm 23:58 Mostly Cloudy 42 5.7 30 -1 62 62 NW 14 22 30.07 1018 10 16 N/A

Powered by AerisWeather